Powrót do katalogu

STARLINK-31751

AktywnyŁącznośćVLEO
NORAD 59574·PAYLOAD·🇺🇸 United States

Wystrzelony Apr 23, 2024 z Cape Canaveral Space Force Station

Loading…

Następne Przeloty (najbliższe 24 godziny)

TLE

ŚwieżeSource: CelesTrak SupGP

Epoka: Sep 14, 2026, 22:14 UTC

1 59574C 24076L   26257.92687500  .00011289  00000+0  40886-3 0  2574
2 59574  43.0034  20.6171 0001807 274.8428 326.3842 15.27575969    19

Śledź STARLINK-31751 w czasie rzeczywistym z AllMySat

Download on the App Store